TimeEDT,TemperatureF,Dew PointF,Humidity,Sea Level PressureIn,VisibilityMPH,Wind Direction,Wind SpeedMPH,Gust SpeedMPH,PrecipitationIn,Events,Conditions,WindDirDegrees,DateUTC
12:56 AM,30.9,10.9,43,30.29,10.0,North,10.4,17.3,N/A,,Clear,10,2013-03-18 04:56:00
1:56 AM,30.0,8.1,40,30.32,10.0,North,12.7,21.9,N/A,,Clear,10,2013-03-18 05:56:00
2:56 AM,28.0,7.0,41,30.33,10.0,North,11.5,25.3,N/A,,Clear,360,2013-03-18 06:56:00
3:56 AM,27.0,5.0,39,30.35,10.0,North,10.4,-,N/A,,Clear,350,2013-03-18 07:56:00
4:56 AM,27.0,10.0,49,30.35,10.0,North,8.1,-,N/A,,Clear,360,2013-03-18 08:56:00
5:56 AM,27.0,12.0,53,30.38,10.0,North,4.6,-,N/A,,Clear,360,2013-03-18 09:56:00
6:56 AM,27.0,14.0,58,30.40,10.0,North,5.8,-,N/A,,Clear,360,2013-03-18 10:56:00
7:56 AM,28.9,14.0,54,30.42,10.0,East,3.5,-,N/A,,Partly Cloudy,90,2013-03-18 11:56:00
8:56 AM,30.9,12.9,47,30.43,10.0,Calm,Calm,-,N/A,,Clear,0,2013-03-18 12:56:00
9:56 AM,33.1,12.9,43,30.43,10.0,NNE,4.6,-,N/A,,Clear,30,2013-03-18 13:56:00
10:56 AM,34.0,14.0,44,30.42,10.0,NNE,8.1,-,N/A,,Clear,30,2013-03-18 14:56:00
11:56 AM,35.1,14.0,42,30.41,10.0,North,9.2,-,N/A,,Clear,10,2013-03-18 15:56:00
12:56 PM,37.0,15.1,41,30.40,10.0,Variable,3.5,-,N/A,,Clear,0,2013-03-18 16:56:00
1:56 PM,35.1,16.0,46,30.39,10.0,SE,8.1,-,N/A,,Clear,140,2013-03-18 17:56:00
2:56 PM,34.0,15.1,46,30.37,10.0,SSE,8.1,-,N/A,,Clear,160,2013-03-18 18:56:00
3:56 PM,34.0,16.0,48,30.35,10.0,SSE,8.1,-,N/A,,Clear,150,2013-03-18 19:56:00
4:56 PM,33.1,18.0,54,30.34,10.0,SSE,6.9,-,N/A,,Clear,160,2013-03-18 20:56:00
5:56 PM,33.1,19.0,56,30.31,10.0,Variable,4.6,-,N/A,,Clear,0,2013-03-18 21:56:00
6:56 PM,33.1,19.0,56,30.30,10.0,SE,5.8,-,N/A,,Clear,140,2013-03-18 22:56:00
7:56 PM,33.1,19.9,59,30.32,10.0,SE,4.6,-,N/A,,Overcast,140,2013-03-18 23:56:00
8:56 PM,33.1,21.0,61,30.29,10.0,SSE,6.9,-,N/A,,Overcast,150,2013-03-19 00:56:00
9:46 PM,33.8,23.0,65,30.28,5.0,ESE,9.2,18.4,0.00,Snow,Light Snow,120,2013-03-19 01:46:00
9:56 PM,33.1,21.9,64,30.28,6.0,SE,6.9,-,0.00,Snow,Light Snow,140,2013-03-19 01:56:00
10:05 PM,33.8,23.0,65,30.27,8.0,ESE,8.1,-,0.00,Snow,Light Snow,120,2013-03-19 02:05:00
10:56 PM,34.0,23.0,64,30.25,10.0,ESE,9.2,-,0.00,,Overcast,120,2013-03-19 02:56:00
11:56 PM,33.1,26.1,75,30.22,10.0,ENE,6.9,-,N/A,,Overcast,70,2013-03-19 03:56:00